Location: Unspecified
(45.6635°N, 122.4424°W)
Time: 13:59:38
(UTC+00:00)

Cosmos 1674 - Visible Passes

Search period start: 26 May 2018 00:00
Search period end: 05 June 2018 00:00
Orbit: 496 x 521 km, 82.5° (Epoch: 25 May)

Date Brightness Start Highest point End Pass type
(mag) Time Alt. Az. Time Alt. Az. Time Alt. Az.
26 May 4.8 08:01:38 17° E 08:01:38 17° E 08:03:55 10° NE visible
26 May 3.6 09:36:30 33° W 09:36:44 33° WNW 09:40:10 10° N visible
27 May 5.0 07:44:36 14° E 07:44:36 14° E 07:46:18 10° NE visible
27 May 3.3 09:19:28 42° W 09:19:33 42° WNW 09:23:09 10° N visible
28 May 5.3 07:27:33 11° E 07:27:33 11° E 07:28:12 10° ENE visible
28 May 2.9 09:02:24 56° WNW 09:02:24 56° WNW 09:06:05 10° N visible
29 May 2.6 08:45:21 73° WNW 08:45:21 73° WNW 08:49:00 10° N visible
30 May 2.6 08:28:16 79° NE 08:28:16 79° NE 08:31:52 10° N visible
31 May 2.8 08:11:11 63° ENE 08:11:11 63° ENE 08:14:41 10° NNE visible
31 May 5.2 09:46:31 10° WNW 09:47:00 10° WNW 09:47:30 10° WNW visible
01 Jun 3.2 07:54:05 48° E 07:54:05 48° E 07:57:29 10° NNE visible
01 Jun 5.0 09:28:56 12° W 09:29:45 13° WNW 09:31:31 10° NW visible
02 Jun 3.6 07:36:58 37° E 07:36:58 37° E 07:40:14 10° NNE visible
02 Jun 4.8 09:11:49 15° W 09:12:29 16° WNW 09:14:54 10° NNW visible
03 Jun 3.9 07:19:50 29° E 07:19:50 29° E 07:22:57 10° NNE visible
03 Jun 4.5 08:54:42 19° W 08:55:15 20° WNW 08:58:06 10° NNW visible
04 Jun 4.2 07:02:42 23° E 07:02:42 23° E 07:05:36 10° NE visible
04 Jun 4.2 08:37:34 24° W 08:38:03 25° WNW 08:41:12 10° NNW visible
